User: anonymous   Login
Location: Unspecified
(0.0000°N, 0.0000°E)
Time: 18:19:41
(UTC+00:00)
Language:

YAOGAN-31 G - Orbit

View from above orbital plane
View from above orbital plane
View from above satellite
View from above satellite

Ground track
Ground track

The orbit is defined by the following mean orbital elements,

1 47691U          26145.57130041 +.00000000 +00000-0 +63568-4 0 00001
2 47691  63.4039 255.9703 0175068   0.5886 359.5315 13.45447949    00
Epoch (UTC): 25 May 2026 13:42:40
Eccentricity: 0.0175068
inclination: 63.4039°
perigee height: 958 km
apogee height: 1220 km
right ascension of ascending node: 255.9703°
argument of perigee: 0.5886°
revolutions per day: 13.45447949
mean anomaly at epoch: 359.5315°

The dashed part of the orbit path shows where the satellite is in the earth's shadow,  

DLR